TA5KT-13 Weather Reports


time (UTC)temp
C
wind
direction
speed
KPH
gust
KPH
rain 1hr
cm
rain 24hr
cm
rain mn
cm
humidity
%
barometer
mb
20260507101519 17 0.0 0.0 0.00 0.00 0.00 87 1017.9
20260507100518 17 0.0 0.0 0.00 0.00 0.00 92 1018.0
20260507095518 17 0.0 0.0 0.00 0.00 0.00 94 1018.1
20260507094518 17 0.0 0.0 0.00 0.00 0.00 95 1018.3
20260507093519 17 0.0 0.0 0.00 0.00 0.00 98 1018.4
20260507092518 17 0.0 0.0 0.00 0.00 0.00 99 1018.5
20260507091518 17 0.0 0.0 0.00 0.00 0.00 10 1018.6
20260507090518 17 0.0 0.0 0.00 0.00 0.00 99 1018.7
20260507085518 17 0.0 0.0 0.00 0.00 0.00 99 1018.9
20260507084518 17 0.0 0.0 0.00 0.00 0.00 10 1019.0
20260507083518 17 0.0 0.0 0.00 0.00 0.00 10 1019.0
20260507082518 17 0.0 0.0 0.00 0.00 0.00 10 1019.0
20260507081518 17 0.0 0.0 0.00 0.00 0.00 10 1019.0
20260507080518 17 0.0 0.0 0.00 0.00 0.00 10 1019.1
20260507075518 17 0.0 0.0 0.00 0.00 0.00 10 1019.1
20260507074518 17 0.0 0.0 0.00 0.00 0.00 10 1019.2
20260507073518 17 0.0 0.0 0.00 0.00 0.00 10 1019.1
20260507072517 17 0.0 0.0 0.00 0.00 0.00 10 1019.1
20260507071517 18 0.0 0.0 0.00 0.00 0.00 10 1018.9
20260507070517 18 0.0 0.0 0.00 0.00 0.00 10 1018.8
20260507065517 18 0.0 0.0 0.00 0.00 0.00 10 1018.9
20260507064518 18 0.0 0.0 0.00 0.00 0.00 10 1019.0
20260507063518 18 0.0 0.0 0.00 0.00 0.00 10 1019.0
20260507062518 18 0.0 0.0 0.00 0.00 0.00 10 1019.2
20260507061517 18 0.0 0.0 0.00 0.00 0.00 10 1019.1
20260507060518 18 0.0 0.0 0.00 0.00 0.00 10 1019.2
20260507055518 18 0.0 0.0 0.00 0.00 0.00 10 1019.1
20260507054517 18 0.0 0.0 0.00 0.00 0.00 10 1019.0
20260507053517 18 0.0 0.0 0.00 0.00 0.00 10 1019.0
20260507052517 18 0.0 0.0 0.00 0.00 0.00 10 1018.9
20260507051517 18 0.0 0.0 0.00 0.00 0.00 10 1018.8
20260507050518 18 0.0 0.0 0.00 0.00 0.00 10 1018.7
20260507045517 18 0.0 0.0 0.00 0.00 0.00 10 1018.8
20260507044517 18 0.0 0.0 0.00 0.00 0.00 10 1018.7
20260507043517 18 0.0 0.0 0.00 0.00 0.00 10 1018.5
20260507042517 18 0.0 0.0 0.00 0.00 0.00 10 1018.5
20260507041517 18 0.0 0.0 0.00 0.00 0.00 10 1018.5
20260507040517 18 0.0 0.0 0.00 0.00 0.00 10 1018.5
20260507035517 18 0.0 0.0 0.00 0.00 0.00 10 1018.4
20260507034517 18 0.0 0.0 0.00 0.00 0.00 10 1018.3
20260507033517 18 0.0 0.0 0.00 0.00 0.00 10 1018.2
20260507032517 18 0.0 0.0 0.00 0.00 0.00 10 1018.0
20260507031517 18 0.0 0.0 0.00 0.00 0.00 10 1018.0
20260507030517 18 0.0 0.0 0.00 0.00 0.00 10 1017.9
20260507025517 18 0.0 0.0 0.00 0.00 0.00 10 1017.8
20260507024517 18 0.0 0.0 0.00 0.00 0.00 10 1017.7
20260507023516 18 0.0 0.0 0.00 0.00 0.00 10 1017.7
20260507022517 18 0.0 0.0 0.00 0.00 0.00 10 1017.6
20260507021517 18 0.0 0.0 0.00 0.00 0.00 10 1017.6
20260507020517 18 0.0 0.0 0.00 0.00 0.00 10 1017.5
20260507015517 18 0.0 0.0 0.00 0.00 0.00 10 1017.5
20260507014517 18 0.0 0.0 0.00 0.00 0.00 10 1017.4
20260507013516 18 0.0 0.0 0.00 0.00 0.00 10 1017.4
20260507012517 18 0.0 0.0 0.00 0.00 0.00 10 1017.4
20260507011517 18 0.0 0.0 0.00 0.00 0.00 10 1017.3
20260507010517 18 0.0 0.0 0.00 0.00 0.00 10 1017.2
20260507005517 18 0.0 0.0 0.00 0.00 0.00 10 1017.2
20260507004516 18 0.0 0.0 0.00 0.00 0.00 10 1017.1
20260507003517 18 0.0 0.0 0.00 0.00 0.00 10 1017.1
20260507002516 18 0.0 0.0 0.00 0.00 0.00 10 1016.9
20260507001516 18 0.0 0.0 0.00 0.00 0.00 10 1017.0
20260507000516 18 0.0 0.0 0.00 0.00 0.00 10 1017.0
20260506235516 18 0.0 0.0 0.00 0.00 0.00 10 1017.0
20260506234516 18 0.0 0.0 0.00 0.00 0.00 10 1017.0
20260506233517 18 0.0 0.0 0.00 0.00 0.00 10 1017.0
20260506232516 18 0.0 0.0 0.00 0.00 0.00 10 1016.9
20260506231516 18 0.0 0.0 0.00 0.00 0.00 10 1017.1
20260506230516 18 0.0 0.0 0.00 0.00 0.00 10 1017.0
20260506225516 18 0.0 0.0 0.00 0.00 0.00 10 1017.0
20260506224516 18 0.0 0.0 0.00 0.00 0.00 10 1017.1
20260506223515 18 0.0 0.0 0.00 0.00 0.00 10 1017.0
20260506222516 18 0.0 0.0 0.00 0.00 0.00 10 1017.1
20260506221516 18 0.0 0.0 0.00 0.00 0.00 10 1017.1
20260506220515 18 0.0 0.0 0.00 0.00 0.00 10 1017.1
20260506215516 18 0.0 0.0 0.00 0.00 0.00 10 1017.1
20260506214515 18 0.0 0.0 0.00 0.00 0.00 10 1017.1
20260506213516 18 0.0 0.0 0.00 0.00 0.00 10 1017.1
20260506212515 19 0.0 0.0 0.00 0.00 0.00 10 1017.1
20260506211516 19 0.0 0.0 0.00 0.00 0.00 10 1017.2
20260506210515 19 0.0 0.0 0.00 0.00 0.00 10 1017.2
20260506205516 19 0.0 0.0 0.00 0.00 0.00 10 1017.2
20260506204515 19 0.0 0.0 0.00 0.00 0.00 10 1017.1
20260506203516 18 0.0 0.0 0.00 0.00 0.00 10 1017.1
20260506202516 18 0.0 0.0 0.00 0.00 0.00 10 1017.2
20260506201515 18 0.0 0.0 0.00 0.00 0.00 10 1017.1
20260506200515 18 0.0 0.0 0.00 0.00 0.00 10 1017.2
20260506195515 18 0.0 0.0 0.00 0.00 0.00 10 1017.3
20260506194515 18 0.0 0.0 0.00 0.00 0.00 10 1017.3
20260506193516 18 0.0 0.0 0.00 0.00 0.00 10 1017.2
20260506192515 18 0.0 0.0 0.00 0.00 0.00 10 1017.3
20260506191515 18 0.0 0.0 0.00 0.00 0.00 10 1017.2
20260506190515 18 0.0 0.0 0.00 0.00 0.00 10 1017.1
20260506185515 18 0.0 0.0 0.00 0.00 0.00 10 1017.1
20260506184517 18 0.0 0.0 0.00 0.00 0.00 10 1017.0
20260506183515 18 0.0 0.0 0.00 0.00 0.00 10 1017.0
20260506182515 18 0.0 0.0 0.00 0.00 0.00 10 1016.9
20260506181515 18 0.0 0.0 0.00 0.00 0.00 10 1016.7
20260506180515 18 0.0 0.0 0.00 0.00 0.00 10 1016.6
20260506175514 18 0.0 0.0 0.00 0.00 0.00 10 1016.6
20260506174515 18 0.0 0.0 0.00 0.00 0.00 10 1016.4
20260506173515 18 0.0 0.0 0.00 0.00 0.00 10 1016.4
20260506172515 18 0.0 0.0 0.00 0.00 0.00 10 1016.4
20260506171515 18 0.0 0.0 0.00 0.00 0.00 10 1016.3
20260506163514 18 0.0 0.0 0.00 0.00 0.00 10 1016.0
20260506162514 18 0.0 0.0 0.00 0.00 0.00 10 1015.9
20260506161514 18 0.0 0.0 0.00 0.00 0.00 10 1015.9
20260506160514 18 0.0 0.0 0.00 0.00 0.00 10 1015.7
20260506155514 18 0.0 0.0 0.00 0.00 0.00 10 1015.6
20260506154514 18 0.0 0.0 0.00 0.00 0.00 10 1015.5
20260506153514 18 0.0 0.0 0.00 0.00 0.00 10 1015.4
20260506152515 18 0.0 0.0 0.00 0.00 0.00 10 1015.3
20260506151514 18 0.0 0.0 0.00 0.00 0.00 10 1015.2
20260506150514 18 0.0 0.0 0.00 0.00 0.00 10 1015.3
20260506145514 18 0.0 0.0 0.00 0.00 0.00 10 1015.4
20260506144514 18 0.0 0.0 0.00 0.00 0.00 10 1015.3
20260506143514 18 0.0 0.0 0.00 0.00 0.00 10 1015.3
20260506142514 18 0.0 0.0 0.00 0.00 0.00 10 1015.2
20260506141514 18 0.0 0.0 0.00 0.00 0.00 10 1015.2
20260506140514 18 0.0 0.0 0.00 0.00 0.00 10 1015.2
20260506135514 18 0.0 0.0 0.00 0.00 0.00 10 1015.1
20260506134514 18 0.0 0.0 0.00 0.00 0.00 10 1015.1
20260506133514 18 0.0 0.0 0.00 0.00 0.00 10 1015.0
20260506132513 18 0.0 0.0 0.00 0.00 0.00 10 1015.0
20260506131513 18 0.0 0.0 0.00 0.00 0.00 10 1015.0
20260506130514 18 0.0 0.0 0.00 0.00 0.00 10 1015.1
20260506125514 18 0.0 0.0 0.00 0.00 0.00 10 1015.1
20260506124513 17 0.0 0.0 0.00 0.00 0.00 10 1015.2
20260506123514 17 0.0 0.0 0.00 0.00 0.00 10 1015.1
20260506122513 17 0.0 0.0 0.00 0.00 0.00 10 1015.2
20260506121513 17 0.0 0.0 0.00 0.00 0.00 10 1015.2
20260506120513 17 0.0 0.0 0.00 0.00 0.00 10 1015.3
20260506115514 17 0.0 0.0 0.00 0.00 0.00 10 1015.4
20260506114514 17 0.0 0.0 0.00 0.00 0.00 10 1015.5
20260506113513 17 0.0 0.0 0.00 0.00 0.00 10 1015.6
20260506112513 17 0.0 0.0 0.00 0.00 0.00 10 1015.7
20260506111513 17 0.0 0.0 0.00 0.00 0.00 10 1015.8
20260506110514 17 0.0 0.0 0.00 0.00 0.00 10 1015.7
20260506105513 17 0.0 0.0 0.00 0.00 0.00 10 1015.8
20260506104513 17 0.0 0.0 0.00 0.00 0.00 10 1015.8
20260506103513 17 0.0 0.0 0.00 0.00 0.00 10 1015.9
20260506102514 17 0.0 0.0 0.00 0.00 0.00 10 1015.8